カタログに戻る

USA 357

運用中軍事VLEO
NORAD 59817·PAYLOAD·🇺🇸 United States

打ち上げ May 22, 2024 から Vandenberg Space Force Base

Loading…

次のパス (今後24時間)

TLE

古いSource: Mike McCants

元期: Aug 15, 2026, 22:37 UTC

1 59817U 24096D   26227.94287861 0.00000000  00000-0  00000-0 0    08
2 59817  70.0211 161.8170 0004000 332.4499  27.5500 14.96713793    04

AllMySatでUSA 357をリアルタイム追跡

Download on the App Store